When you browse on this site, cookies collect data to enhance your experience and personalize the content and advertising you see.
Visit our Privacy Policy to learn more. By continuing to use the site, you agree to this use of cookies and data.
  • în România
  • Lista ţărilor
  • Pe 7 zile
  • Temperatura apei
  • Hartă satelitară
  • Meteo pe hartă
  • Widget-uri
  • user-avatar
    Intrare

    Meteo pe oră la Offenbach am Mein

    Astăzi, 25 Martie, Luni

    Timp Temperatura Precipitaţii Vânt Presiune Umiditate
    00:00 +6°C° 0 mm 2 m/s 757 mmHg 61%
    01:00 +6°C° 0 mm 2 m/s 757 mmHg 63%
    02:00 +5°C° 0 mm 2 m/s 756 mmHg 65%
    03:00 +5°C° 0 mm 2 m/s 756 mmHg 67%
    04:00 +4°C° 0 mm 2 m/s 756 mmHg 69%
    05:00 +4°C° 0 mm 2 m/s 755 mmHg 70%
    06:00 +3°C° 0 mm 3 m/s 755 mmHg 70%
    07:00 +3°C° 0 mm 3 m/s 755 mmHg 71%
    08:00 +4°C° 0.1 mm 4 m/s 755 mmHg 68%
    09:00 +5°C° 0.1 mm 5 m/s 755 mmHg 64%
    10:00 +5°C° 0.1 mm 6 m/s 755 mmHg 61%
    11:00 +7°C° 0.3 mm 6 m/s 755 mmHg 58%
    12:00 +6°C° 0.3 mm 7 m/s 755 mmHg 55%
    13:00 +8°C° 0.3 mm 7 m/s 755 mmHg 52%
    14:00 +8°C° 0.2 mm 7 m/s 755 mmHg 52%
    15:00 +8°C° 0.2 mm 6 m/s 755 mmHg 52%
    16:00 +8°C° 0.2 mm 6 m/s 755 mmHg 53%
    17:00 +7°C° 0.3 mm 5 m/s 756 mmHg 58%
    18:00 +6°C° 0.3 mm 5 m/s 756 mmHg 64%
    19:00 +5°C° 0.3 mm 4 m/s 756 mmHg 70%
    20:00 +5°C° 0.1 mm 4 m/s 757 mmHg 73%
    21:00 +4°C° 0.1 mm 3 m/s 758 mmHg 76%
    22:00 +4°C° 0.1 mm 3 m/s 759 mmHg 79%
    23:00 +3°C° 0 mm 3 m/s 759 mmHg 81%

    Mâine, 26 Martie, Marţi

    Timp Temperatura Precipitaţii Vânt Presiune Umiditate
    00:00 +4°C° 0 mm 2 m/s 760 mmHg 83%
    01:00 +4°C° 0 mm 2 m/s 760 mmHg 84%
    02:00 +3°C° 0 mm 2 m/s 761 mmHg 85%
    03:00 +3°C° 0 mm 2 m/s 761 mmHg 87%
    04:00 +4°C° 0 mm 1 m/s 761 mmHg 88%
    05:00 +3°C° 0 mm 1 m/s 761 mmHg 88%
    06:00 +3°C° 0 mm 1 m/s 761 mmHg 88%
    07:00 +3°C° 0 mm 1 m/s 762 mmHg 89%
    08:00 +4°C° 0 mm 2 m/s 762 mmHg 83%
    09:00 +5°C° 0 mm 2 m/s 762 mmHg 77%
    10:00 +5°C° 0 mm 3 m/s 763 mmHg 72%
    11:00 +5°C° 0 mm 3 m/s 763 mmHg 68%
    12:00 +7°C° 0 mm 3 m/s 762 mmHg 65%
    13:00 +7°C° 0 mm 3 m/s 762 mmHg 61%
    14:00 +7°C° 0 mm 3 m/s 762 mmHg 61%
    15:00 +7°C° 0 mm 3 m/s 762 mmHg 60%
    16:00 +8°C° 0 mm 3 m/s 762 mmHg 60%
    17:00 +7°C° 0 mm 3 m/s 762 mmHg 62%
    18:00 +7°C° 0 mm 2 m/s 762 mmHg 64%
    19:00 +6°C° 0 mm 2 m/s 762 mmHg 67%
    20:00 +6°C° 0 mm 2 m/s 763 mmHg 71%
    21:00 +6°C° 0 mm 1 m/s 763 mmHg 74%
    22:00 +6°C° 0 mm 1 m/s 763 mmHg 78%
    23:00 +6°C° 0 mm 1 m/s 763 mmHg 80%

    Poimâine, 27 Martie, Miercuri

    Timp Temperatura Precipitaţii Vânt Presiune Umiditate
    00:00 +5°C° 0 mm 1 m/s 763 mmHg 83%
    01:00 +5°C° 0 mm 1 m/s 763 mmHg 85%
    02:00 +5°C° 0 mm 1 m/s 763 mmHg 86%
    03:00 +5°C° 0 mm 1 m/s 763 mmHg 87%
    04:00 +4°C° 0 mm 1 m/s 763 mmHg 88%
    05:00 +4°C° 0 mm 1 m/s 763 mmHg 88%
    06:00 +4°C° 0 mm 1 m/s 763 mmHg 88%
    07:00 +3°C° 0 mm 0 m/s 763 mmHg 88%
    08:00 +6°C° 0 mm 1 m/s 764 mmHg 81%
    09:00 +7°C° 0 mm 1 m/s 764 mmHg 74%
    10:00 +8°C° 0 mm 2 m/s 764 mmHg 67%
    11:00 +9°C° 0 mm 2 m/s 764 mmHg 63%
    12:00 +10°C° 0 mm 2 m/s 764 mmHg 58%
    13:00 +12°C° 0 mm 2 m/s 764 mmHg 54%
    14:00 +12°C° 0 mm 2 m/s 763 mmHg 55%
    15:00 +12°C° 0 mm 2 m/s 763 mmHg 55%
    16:00 +13°C° 0 mm 2 m/s 763 mmHg 56%
    17:00 +12°C° 0 mm 2 m/s 763 mmHg 62%
    18:00 +10°C° 0 mm 2 m/s 763 mmHg 68%
    19:00 +10°C° 0 mm 1 m/s 763 mmHg 74%
    20:00 +10°C° 0 mm 1 m/s 764 mmHg 76%
    21:00 +10°C° 0 mm 1 m/s 764 mmHg 78%
    22:00 +9°C° 0 mm 1 m/s 764 mmHg 81%
    23:00 +9°C° 0.1 mm 1 m/s 764 mmHg 83%

    28 Martie, Joi

    Timp Temperatura Precipitaţii Vânt Presiune Umiditate
    00:00 +9°C° 0.1 mm 1 m/s 764 mmHg 85%
    01:00 +9°C° 0.1 mm 1 m/s 764 mmHg 87%
    02:00 +8°C° 0.1 mm 1 m/s 764 mmHg 88%
    03:00 +8°C° 0.1 mm 1 m/s 764 mmHg 90%
    04:00 +8°C° 0.1 mm 1 m/s 764 mmHg 91%
    05:00 +8°C° 0 mm 1 m/s 765 mmHg 91%
    06:00 +8°C° 0 mm 1 m/s 765 mmHg 91%
    07:00 +8°C° 0 mm 1 m/s 765 mmHg 91%
    08:00 +8°C° 0 mm 2 m/s 765 mmHg 85%
    09:00 +10°C° 0 mm 2 m/s 765 mmHg 80%
    10:00 +11°C° 0 mm 3 m/s 766 mmHg 75%
    11:00 +11°C° 0 mm 3 m/s 766 mmHg 73%
    12:00 +12°C° 0 mm 2 m/s 766 mmHg 71%
    13:00 +13°C° 0 mm 2 m/s 766 mmHg 70%
    14:00 +13°C° 0 mm 2 m/s 765 mmHg 69%
    15:00 +13°C° 0 mm 2 m/s 765 mmHg 68%
    16:00 +13°C° 0 mm 2 m/s 765 mmHg 67%
    17:00 +12°C° 0 mm 2 m/s 765 mmHg 71%
    18:00 +12°C° 0 mm 2 m/s 765 mmHg 75%
    19:00 +10°C° 0 mm 2 m/s 765 mmHg 79%
    20:00 +9°C° 0 mm 2 m/s 766 mmHg 82%
    21:00 +8°C° 0 mm 2 m/s 766 mmHg 84%
    22:00 +7°C° 0 mm 2 m/s 766 mmHg 86%
    23:00 +7°C° 0 mm 2 m/s 766 mmHg 87%

    29 Martie, Vineri

    Timp Temperatura Precipitaţii Vânt Presiune Umiditate
    00:00 +6°C° 0 mm 2 m/s 766 mmHg 88%
    01:00 +6°C° 0 mm 2 m/s 766 mmHg 89%
    02:00 +7°C° 0 mm 1 m/s 766 mmHg 89%
    03:00 +6°C° 0 mm 1 m/s 766 mmHg 89%
    04:00 +6°C° 0 mm 1 m/s 766 mmHg 89%
    05:00 +6°C° 0 mm 1 m/s 766 mmHg 88%
    06:00 +6°C° 0 mm 1 m/s 766 mmHg 87%
    07:00 +5°C° 0 mm 1 m/s 766 mmHg 86%
    08:00 +6°C° 0 mm 2 m/s 766 mmHg 78%
    09:00 +8°C° 0 mm 2 m/s 766 mmHg 70%
    10:00 +10°C° 0 mm 2 m/s 766 mmHg 62%
    11:00 +12°C° 0 mm 2 m/s 766 mmHg 57%
    12:00 +14°C° 0 mm 2 m/s 765 mmHg 51%
    13:00 +15°C° 0 mm 2 m/s 765 mmHg 45%
    14:00 +15°C° 0 mm 2 m/s 764 mmHg 45%
    15:00 +16°C° 0 mm 2 m/s 764 mmHg 44%
    16:00 +16°C° 0 mm 2 m/s 763 mmHg 43%
    17:00 +15°C° 0 mm 2 m/s 763 mmHg 49%
    18:00 +13°C° 0 mm 1 m/s 763 mmHg 54%
    19:00 +12°C° 0 mm 1 m/s 763 mmHg 59%
    20:00 +11°C° 0 mm 1 m/s 763 mmHg 62%
    21:00 +10°C° 0 mm 1 m/s 763 mmHg 64%
    22:00 +10°C° 0 mm 1 m/s 763 mmHg 67%
    23:00 +9°C° 0 mm 1 m/s 763 mmHg 69%

    30 Martie, Sâmbătă

    Timp Temperatura Precipitaţii Vânt Presiune Umiditate
    00:00 +9°C° 0 mm 1 m/s 763 mmHg 71%
    01:00 +8°C° 0 mm 1 m/s 762 mmHg 73%
    02:00 +8°C° 0 mm 1 m/s 762 mmHg 75%
    03:00 +8°C° 0 mm 1 m/s 762 mmHg 78%
    04:00 +7°C° 0 mm 1 m/s 762 mmHg 80%
    05:00 +7°C° 0 mm 1 m/s 762 mmHg 80%
    06:00 +7°C° 0 mm 1 m/s 762 mmHg 80%
    07:00 +7°C° 0 mm 1 m/s 762 mmHg 81%
    08:00 +9°C° 0 mm 1 m/s 761 mmHg 73%
    09:00 +11°C° 0 mm 1 m/s 761 mmHg 65%
    10:00 +14°C° 0 mm 1 m/s 761 mmHg 57%
    11:00 +15°C° 0 mm 1 m/s 760 mmHg 52%
    12:00 +16°C° 0 mm 1 m/s 760 mmHg 47%
    13:00 +18°C° 0 mm 1 m/s 759 mmHg 42%
    14:00 +18°C° 0 mm 1 m/s 758 mmHg 41%
    15:00 +19°C° 0 mm 1 m/s 758 mmHg 41%
    16:00 +18°C° 0 mm 2 m/s 757 mmHg 40%
    17:00 +16°C° 0 mm 1 m/s 757 mmHg 44%
    18:00 +15°C° 0 mm 1 m/s 756 mmHg 49%
    19:00 +12°C° 0 mm 0 m/s 756 mmHg 54%
    20:00 +13°C° 0 mm 1 m/s 756 mmHg 58%
    21:00 +12°C° 0 mm 1 m/s 756 mmHg 61%
    22:00 +11°C° 0 mm 1 m/s 757 mmHg 64%
    23:00 +11°C° 0 mm 1 m/s 756 mmHg 68%
    Arată mai mult